KN4TIM Weather Reports


time (UTC)temp
C
wind
direction
speed
KPH
gust
KPH
rain 1hr
cm
rain 24hr
cm
rain mn
cm
humidity
%
barometer
mb
20260906095504 20 300 0.0 0.0 0.00 1.80 0.03 97 1011.8
20260906095006 20 300 0.0 0.0 0.00 1.80 0.03 97 1011.8
20260906094524 20 300 0.0 0.0 0.00 1.80 0.03 97 1011.8
20260906094007 20 300 0.0 0.0 0.00 1.80 0.03 97 1011.7
20260906093508 20 300 0.0 0.0 0.00 1.80 0.03 97 1011.7
20260906093018 20 300 0.0 1.6 0.00 1.80 0.03 97 1011.5
20260906092510 20 300 0.0 1.6 0.00 1.80 0.03 97 1011.6
20260906092014 20 300 0.0 1.6 0.00 1.80 0.03 97 1011.7
20260906091520 20 286 0.0 0.0 0.00 1.80 0.03 97 1011.7
20260906091012 20 286 0.0 0.0 0.00 1.80 0.03 97 1011.7
20260906090518 20 286 0.0 0.0 0.00 1.80 0.03 97 1011.6
20260906090028 20 286 0.0 0.0 0.00 1.80 0.03 97 1011.5
20260906085512 20 286 0.0 0.0 0.00 1.80 0.03 97 1011.5
20260906085014 20 286 0.0 0.0 0.00 1.80 0.03 97 1011.5
20260906084536 20 286 0.0 0.0 0.00 1.80 0.03 97 1011.4
20260906084005 20 286 0.0 0.0 0.00 1.80 0.03 97 1011.4
20260906083507 20 286 0.0 0.0 0.00 1.80 0.03 97 1011.5
20260906083012 20 286 0.0 0.0 0.00 1.80 0.03 97 1011.4
20260906082508 20 286 0.0 0.0 0.00 1.80 0.03 97 1011.5
20260906082011 20 286 0.0 0.0 0.00 1.80 0.03 97 1011.6
20260906081536 20 286 0.0 0.0 0.00 1.80 0.03 97 1011.7
20260906081007 20 286 0.0 0.0 0.00 1.80 0.03 97 1011.6
20260906080515 20 286 0.0 0.0 0.00 1.80 0.03 97 1011.5
20260906080024 20 286 0.0 0.0 0.00 1.80 0.03 97 1011.4
20260906075513 20 286 0.0 0.0 0.00 1.80 0.03 97 1011.2
20260906075015 20 286 0.0 0.0 0.03 1.80 0.03 97 1011.1
20260906074531 20 286 0.0 0.0 0.03 1.80 0.03 97 1011.3
20260906074014 20 286 0.0 0.0 0.03 1.80 0.03 96 1011.4
20260906073514 20 286 0.0 0.0 0.03 1.80 0.03 96 1011.5
20260906073030 20 286 0.0 0.0 0.03 1.80 0.03 96 1011.5
20260906072504 20 286 0.0 0.0 0.03 1.80 0.03 96 1011.6
20260906072004 20 286 0.0 0.0 0.03 1.80 0.03 96 1011.6
20260906071511 20 286 0.0 0.0 0.03 1.80 0.03 96 1011.5
20260906071010 20 286 0.0 0.0 0.03 1.80 0.03 96 1011.5
20260906070513 20 286 0.0 0.0 0.03 1.80 0.03 96 1011.6
20260906070018 20 286 0.0 0.0 0.03 1.80 0.03 96 1011.5
20260906065512 20 286 0.0 0.0 0.03 1.80 0.03 96 1011.4
20260906065014 21 286 0.0 0.0 0.00 1.78 0.00 96 1011.5
20260906064526 21 286 0.0 0.0 0.00 1.78 0.00 96 1011.6
20260906064011 21 286 0.0 0.0 0.00 1.78 0.00 96 1011.6
20260906063513 21 286 0.0 0.0 0.00 1.78 0.00 96 1011.6
20260906063033 21 286 0.0 0.0 0.00 1.78 0.00 96 1011.5
20260906062518 21 286 0.0 0.0 0.00 1.78 0.00 96 1011.7
20260906062014 21 286 0.0 0.0 0.00 1.78 0.00 96 1011.7
20260906061538 21 286 0.0 0.0 0.00 1.78 0.00 96 1011.8
20260906061004 21 287 0.0 0.0 0.00 1.78 0.00 96 1011.9
20260906060503 21 286 0.0 0.0 0.00 1.78 0.00 95 1011.9
20260906060006 21 286 0.0 1.6 0.00 1.78 0.00 95 1011.8
20260906055503 21 286 0.0 1.6 0.00 1.78 0.00 95 1011.8
20260906055003 21 286 0.0 1.6 0.00 1.78 0.00 95 1011.9
20260906054503 21 286 0.0 1.6 0.00 1.78 0.00 95 1011.8
20260906054004 21 287 0.0 3.2 0.00 1.78 0.00 95 1012.0
20260906053504 21 284 0.0 3.2 0.00 1.78 0.00 95 1012.2
20260906053003 21 297 0.0 1.6 0.00 1.78 0.00 96 1012.2
20260906052504 21 298 0.0 1.6 0.00 1.78 0.00 96 1012.3
20260906052003 21 299 0.0 1.6 0.00 1.78 0.00 96 1012.4
20260906051504 21 299 0.0 1.6 0.00 1.78 0.00 96 1012.4
20260906051004 21 293 0.0 0.0 0.00 1.78 0.00 95 1012.4
20260906050503 21 293 0.0 1.6 0.00 1.78 0.00 95 1012.5
20260906050004 21 293 0.0 1.6 0.00 1.78 0.00 95 1012.5
20260906045503 21 293 0.0 1.6 0.00 1.78 0.00 95 1012.6
20260906045004 21 293 0.0 4.8 0.00 1.78 0.00 95 1012.7
20260906044506 21 293 0.0 4.8 0.00 1.78 0.00 95 1012.5
20260906044004 21 293 1.6 4.8 0.00 1.78 0.00 95 1012.6
20260906043504 21 288 0.0 1.6 0.00 1.78 0.00 96 1012.6
20260906043005 21 288 0.0 1.6 0.00 1.78 0.00 96 1012.7
20260906042502 21 288 0.0 0.0 0.00 1.78 0.00 95 1012.5
20260906042003 21 288 0.0 0.0 0.00 1.78 0.00 95 1012.5
20260906041505 21 288 0.0 1.6 0.00 1.78 0.00 95 1012.4
20260906041004 21 288 0.0 1.6 0.00 1.78 0.00 95 1012.4
20260906040503 21 288 0.0 1.6 0.00 1.78 0.00 95 1012.3
20260906040006 21 288 0.0 0.0 0.00 1.78 0.00 95 1012.4
20260906035502 21 288 0.0 0.0 0.00 1.78 1.78 95 1012.3
20260906035006 21 288 0.0 1.6 0.00 1.78 1.78 95 1012.4
20260906034509 21 288 0.0 1.6 0.00 1.78 1.78 95 1012.5
20260906034003 21 288 0.0 0.0 0.00 1.78 1.78 95 1012.4
20260906033502 21 288 0.0 0.0 0.00 1.78 1.78 95 1012.3
20260906033008 21 288 0.0 1.6 0.00 1.78 1.78 95 1012.3
20260906032503 21 288 0.0 1.6 0.00 1.78 1.78 95 1012.3
20260906032002 21 288 0.0 1.6 0.00 1.78 1.78 95 1012.4
20260906031504 21 288 0.0 1.6 0.00 1.78 1.78 95 1012.4
20260906031004 21 288 0.0 1.6 0.00 1.78 1.78 95 1012.3
20260906030504 21 288 0.0 1.6 0.00 1.78 1.78 95 1012.4
20260906030005 21 288 0.0 1.6 0.00 1.78 1.78 96 1012.6
20260906025503 21 288 0.0 1.6 0.00 1.78 1.78 95 1012.6
20260906025004 21 287 0.0 3.2 0.00 1.78 1.78 95 1012.8
20260906024508 21 287 0.0 3.2 0.00 1.78 1.78 96 1012.9
20260906024006 21 287 0.0 3.2 0.00 1.78 1.78 96 1012.7
20260906023504 21 285 1.6 3.2 0.00 1.78 1.78 96 1012.7
20260906023005 21 305 0.0 3.2 0.00 1.78 1.78 95 1012.8
20260906022506 21 305 0.0 3.2 0.00 1.78 1.78 95 1012.8
20260906022006 21 295 0.0 3.2 0.00 1.78 1.78 95 1012.7
20260906021511 21 296 0.0 1.6 0.00 1.78 1.78 95 1012.6
20260906021006 21 296 0.0 1.6 0.00 1.78 1.78 95 1012.4
20260906020506 21 295 0.0 1.6 0.00 1.78 1.78 95 1012.3
20260906020004 21 295 0.0 1.6 0.00 1.78 1.78 95 1012.3
20260906015506 21 296 0.0 0.0 0.00 1.78 1.78 95 1012.2
20260906015004 21 296 0.0 0.0 0.00 1.78 1.78 95 1012.2
20260906014506 21 296 0.0 1.6 0.00 1.78 1.78 95 1012.2
20260906014005 21 296 0.0 1.6 0.00 1.78 1.78 95 1012.3
20260906013503 21 296 0.0 1.6 0.00 1.78 1.78 95 1012.2
20260906013009 21 296 0.0 1.6 0.00 1.78 1.78 95 1012.2
20260906012507 21 296 0.0 0.0 0.00 1.78 1.78 95 1012.1
20260906012007 21 296 0.0 0.0 0.00 1.78 1.78 94 1012.0
20260906011512 21 296 0.0 0.0 0.00 1.78 1.78 94 1012.0
20260906011011 21 296 0.0 1.6 0.00 1.78 1.78 94 1011.9
20260906010505 21 296 0.0 1.6 0.00 1.78 1.78 95 1011.8
20260906010010 21 296 0.0 1.6 0.00 1.78 1.78 94 1011.8
20260906005507 21 296 0.0 1.6 0.00 1.78 1.78 94 1011.9
20260906005008 21 296 0.0 1.6 0.00 1.78 1.78 94 1011.9
20260906004505 21 295 0.0 3.2 0.00 1.78 1.78 94 1012.1
20260906004003 21 295 0.0 3.2 0.00 1.78 1.78 94 1012.2
20260906003503 21 287 0.0 1.6 0.00 1.78 1.78 94 1012.3
20260906003008 22 286 0.0 1.6 0.00 1.78 1.78 94 1012.4
20260906002506 22 287 0.0 1.6 0.00 1.78 1.78 94 1012.5
20260906002006 22 287 0.0 1.6 0.00 1.78 1.78 94 1012.4
20260906001508 22 305 0.0 3.2 0.00 1.78 1.78 94 1012.4
20260906001008 22 305 0.0 3.2 0.00 1.78 1.78 93 1012.4
20260906000507 22 319 1.6 1.6 0.00 1.78 1.78 93 1012.3
20260906000012 22 321 0.0 1.6 0.00 1.78 1.78 93 1012.4
20260905235507 22 321 0.0 1.6 0.00 1.78 1.78 93 1012.4
20260905235007 22 321 0.0 0.0 0.00 1.78 1.78 93 1012.4
20260905234512 22 321 0.0 0.0 0.00 1.78 1.78 93 1012.5
20260905234009 22 321 0.0 1.6 0.00 1.78 1.78 93 1012.5
20260905233507 22 321 0.0 1.6 0.00 1.78 1.78 93 1012.7
20260905233006 22 321 0.0 1.6 0.00 1.78 1.78 93 1012.8
20260905232508 22 321 0.0 1.6 0.00 1.78 1.78 93 1012.7
20260905232004 22 321 0.0 1.6 0.00 1.78 1.78 93 1012.8
20260905231511 23 321 0.0 1.6 0.00 1.78 1.78 94 1012.6
20260905231007 23 321 0.0 0.0 0.00 1.78 1.78 94 1012.3
20260905230507 22 321 0.0 0.0 0.00 1.78 1.78 94 1012.1
20260905230014 22 321 0.0 0.0 0.00 1.78 1.78 94 1011.9
20260905225508 22 321 0.0 1.6 0.00 1.78 1.78 94 1011.9
20260905225006 22 321 0.0 1.6 0.00 1.78 1.78 93 1011.7
20260905224512 22 321 0.0 1.6 0.00 1.78 1.78 93 1011.6
20260905224009 22 215 0.0 4.8 0.00 1.78 1.78 92 1011.7
20260905223508 22 211 0.0 9.7 0.00 1.78 1.78 92 1011.8
20260905223030 22 134 1.6 9.7 0.03 1.78 1.78 91 1011.7
20260905222509 21 305 0.0 3.2 0.03 1.78 1.78 93 1011.5
20260905222009 21 305 0.0 3.2 0.03 1.78 1.78 93 1011.3
20260905221524 21 324 0.0 1.6 0.03 1.78 1.78 93 1011.2
20260905221004 21 90 0.0 1.6 0.03 1.78 1.78 93 1011.3
20260905220505 21 126 0.0 1.6 0.03 1.78 1.78 94 1011.1
20260905220012 21 126 0.0 3.2 0.05 1.78 1.78 93 1010.7
20260905215509 21 126 0.0 4.8 0.36 1.78 1.78 92 1010.6
20260905215006 21 156 1.6 4.8 0.84 1.78 1.78 92 1010.6
20260905214517 21 318 0.0 4.8 1.52 1.78 1.78 93 1010.8
20260905214008 22 328 1.6 4.8 1.65 1.78 1.78 92 1010.9
20260905213513 22 298 0.0 9.7 1.68 1.78 1.78 93 1011.1
20260905213016 22 351 3.2 9.7 1.75 1.75 1.75 92 1011.2
20260905212510 21 312 0.0 6.4 1.75 1.75 1.75 93 1011.3
20260905212015 22 356 1.6 6.4 1.75 1.75 1.75 93 1011.1
20260905211536 22 20 0.0 4.8 1.75 1.75 1.75 94 1011.5
20260905211012 21 292 0.0 3.2 1.75 1.75 1.75 93 1010.6
20260905210513 21 292 1.6 11.3 1.75 1.75 1.75 91 1010.9
20260905210009 21 66 1.6 27.4 1.73 1.73 1.73 89 1010.9
20260905205505 22 302 4.8 40.2 1.42 1.42 1.42 86 1012.3
20260905205004 23 314 6.4 40.2 0.94 0.94 0.94 82 1012.9
20260905204513 25 312 6.4 19.3 0.25 0.25 0.25 73 1012.1
20260905204007 27 303 8.0 22.5 0.13 0.13 0.13 65 1011.7
20260905203508 31 24 8.0 22.5 0.10 0.10 0.10 57 1011.4
20260905203016 35 336 3.2 11.3 0.00 0.00 0.00 53 1010.7
20260905202512 36 37 4.8 11.3 0.00 0.00 0.00 49 1010.4
20260905202002 37 312 3.2 8.0 0.00 0.00 0.00 44 1010.3
20260905201504 37 308 1.6 4.8 0.00 0.00 0.00 45 1010.1
20260905201003 37 311 1.6 3.2 0.00 0.00 0.00 45 1010.3
20260905200503 37 55 0.0 6.4 0.00 0.00 0.00 43 1010.5
20260905200004 38 317 3.2 6.4 0.00 0.00 0.00 43 1010.4
20260905195506 38 231 0.0 3.2 0.00 0.00 0.00 45 1010.3
20260905195004 37 106 0.0 3.2 0.00 0.00 0.00 45 1010.3
20260905194508 37 58 1.6 3.2 0.00 0.00 0.00 47 1010.5
20260905194004 37 108 1.6 1.6 0.00 0.00 0.00 47 1010.5
20260905193507 36 69 1.6 1.6 0.00 0.00 0.00 48 1010.5
20260905193014 36 48 0.0 4.8 0.00 0.00 0.00 48 1010.6
20260905192502 36 43 0.0 4.8 0.00 0.00 0.00 47 1010.6
20260905192005 37 17 1.6 4.8 0.00 0.00 0.00 47 1010.8
20260905191503 37 318 1.6 4.8 0.00 0.00 0.00 46 1010.8
20260905191004 37 288 1.6 8.0 0.00 0.00 0.00 45 1010.8
20260905190504 37 321 3.2 8.0 0.00 0.00 0.00 44 1010.9
20260905190003 37 337 3.2 8.0 0.00 0.00 0.00 44 1010.9
20260905185502 38 319 1.6 3.2 0.00 0.00 0.00 45 1011.0
20260905185002 38 115 1.6 3.2 0.00 0.00 0.00 47 1011.2
20260905184506 37 7 1.6 3.2 0.00 0.00 0.00 46 1011.3
20260905184003 37 29 1.6 4.8 0.00 0.00 0.00 47 1011.4
20260905183504 37 321 1.6 4.8 0.00 0.00 0.00 48 1011.5
20260905183010 37 266 0.0 3.2 0.00 0.00 0.00 49 1011.7
20260905182505 36 264 0.0 3.2 0.00 0.00 0.00 51 1011.8
20260905182005 36 290 0.0 3.2 0.00 0.00 0.00 50 1011.9
20260905181516 36 334 0.0 3.2 0.00 0.00 0.00 49 1012.1
20260905181010 37 295 1.6 6.4 0.00 0.00 0.00 49 1012.2
20260905180502 37 307 1.6 6.4 0.00 0.00 0.00 48 1012.3
20260905180004 37 312 1.6 4.8 0.00 0.00 0.00 48 1012.2
20260905175503 37 346 0.0 3.2 0.00 0.00 0.00 47 1012.3
20260905175003 37 271 1.6 6.4 0.00 0.00 0.00 47 1012.4
20260905174502 37 326 1.6 6.4 0.00 0.00 0.00 47 1012.4
20260905174004 37 262 0.0 4.8 0.00 0.00 0.00 50 1012.5
20260905173504 36 314 1.6 4.8 0.00 0.00 0.00 50 1012.6
20260905173007 36 321 1.6 4.8 0.00 0.00 0.00 51 1012.7
20260905172503 36 302 1.6 4.8 0.00 0.00 0.00 52 1012.7
20260905171523 35 326 1.6 4.8 0.00 0.00 0.00 53 1012.8
20260905171013 36 333 1.6 3.2 0.00 0.00 0.00 52 1012.9
20260905170506 36 123 0.0 4.8 0.00 0.00 0.00 53 1013.0
20260905170024 36 134 1.6 6.4 0.00 0.00 0.00 53 1013.0
20260905165512 36 259 1.6 8.0 0.00 0.00 0.00 53 1013.1
20260905165010 35 314 4.8 8.0 0.00 0.00 0.00 54 1013.1
20260905164503 35 345 0.0 6.4 0.00 0.00 0.00 54 1013.3
20260905164003 35 288 3.2 6.4 0.00 0.00 0.00 54 1013.4
20260905163503 36 297 3.2 6.4 0.00 0.00 0.00 54 1013.5
20260905163004 35 314 3.2 6.4 0.00 0.00 0.00 55 1013.6
20260905162503 35 11 1.6 4.8 0.00 0.00 0.00 55 1013.5
20260905162007 35 291 0.0 6.4 0.00 0.00 0.00 55 1013.6
20260905161505 35 307 1.6 6.4 0.00 0.00 0.00 56 1013.6
20260905161003 35 234 1.6 3.2 0.00 0.00 0.00 57 1013.7
20260905160507 35 116 1.6 8.0 0.00 0.00 0.00 58 1013.7
20260905160024 34 63 1.6 8.0 0.00 0.00 0.00 59 1013.7
20260905155506 34 271 1.6 6.4 0.00 0.00 0.00 59 1013.8
20260905155007 33 331 0.0 9.7 0.00 0.00 0.00 61 1013.9
20260905154540 33 335 3.2 9.7 0.00 0.00 0.00 60 1013.9
20260905154010 33 290 1.6 8.0 0.00 0.00 0.00 61 1013.9
20260905153513 33 46 1.6 4.8 0.00 0.00 0.00 62 1013.9
20260905153005 33 86 1.6 4.8 0.00 0.00 0.00 62 1013.9
20260905152504 33 278 1.6 6.4 0.00 0.00 0.00 62 1014.1
20260905152004 33 328 1.6 6.4 0.00 0.00 0.00 63 1014.3
20260905151505 33 304 1.6 6.4 0.00 0.00 0.00 63 1014.3
20260905151003 32 125 1.6 8.0 0.00 0.00 0.00 65 1014.3
20260905150504 32 317 1.6 8.0 0.00 0.00 0.00 65 1014.3
20260905150006 32 321 1.6 6.4 0.00 0.00 0.00 66 1014.4
20260905145506 32 286 1.6 6.4 0.00 0.00 0.00 66 1014.5
20260905145008 32 304 1.6 6.4 0.00 0.00 0.00 67 1014.5
20260905144512 31 304 1.6 8.0 0.00 0.00 0.00 68 1014.5
20260905144009 31 15 1.6 8.0 0.00 0.00 0.00 70 1014.7
20260905143508 31 322 1.6 4.8 0.00 0.00 0.00 70 1014.8
20260905143018 30 290 0.0 6.4 0.00 0.00 0.00 72 1014.8
20260905142512 30 243 1.6 6.4 0.00 0.00 0.00 73 1014.7
20260905142015 30 15 3.2 4.8 0.00 0.00 0.00 73 1014.7
20260905141528 29 107 1.6 6.4 0.00 0.00 0.00 75 1014.7
20260905141006 29 316 1.6 6.4 0.00 0.00 0.00 76 1014.7
20260905140504 28 46 0.0 6.4 0.00 0.00 0.00 77 1014.7
20260905140005 28 330 1.6 6.4 0.00 0.00 0.00 77 1014.7
20260905135504 28 304 0.0 3.2 0.00 0.00 0.00 79 1014.7
20260905135004 28 110 0.0 4.8 0.00 0.00 0.00 79 1014.6
20260905134510 28 355 1.6 6.4 0.00 0.00 0.00 80 1014.6
20260905134010 27 269 0.0 6.4 0.00 0.00 0.00 81 1014.7
20260905133507 27 325 1.6 6.4 0.00 0.00 0.00 81 1014.7
20260905133016 27 300 0.0 4.8 0.00 0.00 0.00 82 1014.7
20260905132512 27 320 0.0 4.8 0.00 0.00 0.00 83 1014.9
20260905132015 27 305 1.6 4.8 0.00 0.00 0.00 84 1014.8
20260905131523 26 309 0.0 4.8 0.00 0.00 0.00 84 1014.8
20260905131012 26 313 1.6 4.8 0.00 0.00 0.00 85 1014.8
20260905130515 26 308 0.0 4.8 0.00 0.00 0.00 86 1014.9
20260905130029 26 308 0.0 4.8 0.00 0.00 0.00 86 1014.9
20260905125507 26 122 0.0 1.6 0.00 0.00 0.00 87 1015.0
20260905125002 26 194 0.0 1.6 0.00 0.00 0.00 88 1015.0
20260905124508 25 287 0.0 3.2 0.00 0.00 0.00 89 1015.0
20260905124005 25 320 0.0 3.2 0.00 0.00 0.00 89 1014.8
20260905123505 25 341 0.0 1.6 0.00 0.00 0.00 90 1014.9
20260905123009 25 237 0.0 1.6 0.00 0.00 0.00 90 1014.9
20260905122513 25 236 0.0 1.6 0.00 0.00 0.00 91 1014.8
20260905122011 25 236 0.0 1.6 0.00 0.00 0.00 91 1014.9
20260905121519 25 259 0.0 1.6 0.00 0.00 0.00 92 1014.7
20260905121010 24 255 0.0 1.6 0.00 0.00 0.00 92 1014.7
20260905120512 24 225 0.0 1.6 0.00 0.00 0.00 93 1014.6
20260905120027 24 225 0.0 1.6 0.00 0.00 0.00 93 1014.6
20260905115516 24 224 0.0 1.6 0.00 0.00 0.00 93 1014.5
20260905115013 24 224 0.0 1.6 0.00 0.00 0.00 93 1014.5
20260905114528 23 224 0.0 1.6 0.00 0.00 0.00 93 1014.5
20260905114005 23 217 0.0 1.6 0.00 0.00 0.00 94 1014.4
20260905113508 23 216 0.0 1.6 0.00 0.00 0.00 94 1014.3
20260905113008 23 216 0.0 1.6 0.00 0.00 0.00 94 1014.2
20260905112506 23 214 0.0 0.0 0.00 0.00 0.00 94 1014.2
20260905112008 23 214 0.0 0.0 0.00 0.00 0.00 94 1014.2
20260905111514 23 213 0.0 0.0 0.00 0.00 0.00 94 1014.2
20260905111010 23 213 0.0 0.0 0.00 0.00 0.00 94 1014.2
20260905110513 23 214 0.0 0.0 0.00 0.00 0.00 93 1014.1
20260905110018 23 214 0.0 0.0 0.00 0.00 0.00 93 1014.1
20260905105512 23 214 0.0 0.0 0.00 0.00 0.00 94 1014.0
20260905105015 23 214 0.0 0.0 0.00 0.00 0.00 94 1014.1
20260905104540 23 214 0.0 0.0 0.00 0.00 0.00 94 1014.0
20260905104015 23 214 0.0 0.0 0.00 0.00 0.00 93 1013.9
20260905103515 23 213 0.0 0.0 0.00 0.00 0.00 94 1014.0
20260905103033 23 214 0.0 0.0 0.00 0.00 0.00 93 1014.0
20260905102504 23 214 0.0 0.0 0.00 0.00 0.00 93 1013.8
20260905102007 23 214 0.0 0.0 0.00 0.00 0.00 93 1013.8
20260905101512 23 214 0.0 0.0 0.00 0.00 0.00 93 1013.8
20260905101007 23 214 0.0 0.0 0.00 0.00 0.00 93 1013.7
20260905100507 23 214 0.0 0.0 0.00 0.00 0.00 93 1013.8
20260905100017 23 213 0.0 0.0 0.00 0.00 0.00 93 1013.8